This is the latest recevied weather packets stored in our database for station/object N2XP-3. If no packets are shown the sender has not sent any weather packets the latest 10 day(s).
| Time | Temp. | Humidity | Pressure | Rain* | Wind** | Luminosity | Snow |
|---|---|---|---|---|---|---|---|
| 1777563918 | 14.44° C | 84% | 1005.1 hPa | 0 mm | 0.45 m/s, 10° | - | - |
| 1777563794 | 14.44° C | 84% | 1005.1 hPa | 0 mm | 0.45 m/s, 10° | - | - |
| 1777563494 | 13.89° C | 87% | 1005.1 hPa | 0 mm | 0.89 m/s, 48° | - | - |
| 1777563280 | 13.33° C | 87% | 1005.2 hPa | 0 mm | 1.34 m/s, 145° | - | - |
| 1777563190 | 13.33° C | 87% | 1005.2 hPa | 0 mm | 1.34 m/s, 145° | - | - |
| 1777562986 | 13.33° C | 88% | 1005.2 hPa | 0 mm | 0.89 m/s, 249° | - | - |
| 1777562891 | 13.33° C | 88% | 1005.2 hPa | 0 mm | 0.89 m/s, 249° | - | - |
| 1777562647 | 13.33° C | 87% | 1005.2 hPa | 0 mm | 1.34 m/s, 207° | - | - |
| 1777562593 | 13.33° C | 87% | 1005.2 hPa | 0 mm | 1.34 m/s, 207° | - | - |
| 1777562288 | 13.89° C | 87% | 1005.3 hPa | 0 mm | 0 m/s | - | - |
| 1777561971 | 14.44° C | 89% | 1005.3 hPa | 0 mm | 1.34 m/s, 118° | - | - |
| 1777561672 | 13.89° C | 92% | 1005.2 hPa | 0 mm | 0.45 m/s, 56° | - | - |
| 1777561368 | 13.33° C | 94% | 1005.1 hPa | 0 mm | 0.45 m/s, 1° | - | - |
| 1777561068 | 12.78° C | 96% | 1005.1 hPa | 0 mm | 1.34 m/s, 224° | - | - |
| 1777560763 | 12.22° C | 96% | 1005.1 hPa | 0 mm | 0 m/s | - | - |
| 1777560719 | 11.67° C | 96% | 1005.1 hPa | 0 mm | 0 m/s | - | - |
| 1777560458 | 11.67° C | 96% | 1005.1 hPa | 0 mm | 0 m/s | - | - |
| 1777559853 | 12.22° C | 96% | 1005.1 hPa | 0 mm | 0.89 m/s, 11° | - | - |
| 1777559547 | 12.22° C | 96% | 1004.9 hPa | 0 mm | 1.79 m/s, 132° | - | - |
| 1777559246 | 12.22° C | 97% | 1005 hPa | 0 mm | 0 m/s | - | - |
| 1777558981 | 12.22° C | 97% | 1005 hPa | 0 mm | 0 m/s | - | - |
| 1777558944 | 12.22° C | 97% | 1005 hPa | 0 mm | 0 m/s | - | - |
| 1777558703 | 12.22° C | 98% | 1005 hPa | 0 mm | 0 m/s | - | - |
| 1777558640 | 12.22° C | 98% | 1005 hPa | 0 mm | 0 m/s | - | - |
| 1777558338 | 11.67° C | 98% | 1004.9 hPa | 0 mm | 0.45 m/s, 242° | - | - |
* Rain latest hour (hover to see other rain measurements)
** Current wind speed in m/s (hover to see current wind gust speed)